Change the Weather History Date:

Wednesday, October 31, 2012

  Actual Average (PHNL) Record (PHNL)
Temperature  
Mean Temperature 74 °F 79 °F  
Max Temperature 82 °F 85 °F 89 °F (1968)
Min Temperature 66 °F 73 °F 64 °F (1975)
Degree Days  
Heating Degree Days 0 0  
Month to date heating degree days 0  
Since 1 July heating degree days 0  
Cooling Degree Days 9 14  
Month to date cooling degree days 467  
Year to date cooling degree days 3946  
Growing Degree Days 24 (Base 50)    
Moisture  
Dew Point 65 °F    
Average Humidity 73    
Maximum Humidity 93    
Minimum Humidity 47    
Precipitation  
Precipitation 0.00 in 0.08 in 2.64 in (1978)
Month to date precipitation 1.84  
Year to date precipitation 11.44  
Snow  
Snow 0.00 in - - ()
Month to date snowfall  
Since 1 July snowfall  
Since 1 September snowfall  
Snow Depth -    
Sea Level Pressure  
Sea Level Pressure 30.06 in    
Wind  
Wind Speed 2 mph (ENE)    
Max Wind Speed 9 mph    
Max Gust Speed 16 mph    
Visibility 10 miles    
Events      
T = Trace of Precipitation, MM = Missing Value Source: NWS Daily Summary

Daily Weather History Graph

Daily Weather History Graph

Search for Another Location

Airport or City:

Trip Planner

Search our weather history database for the weather conditions in past years. The results will help you decide how hot, cold, wet, or windy it might be!

Date:

Astronomy

Oct. 31, 2012 Rise Set
Actual Time 6:35 AM HST 5:56 PM HST
Civil Twilight 6:12 AM HST 6:19 PM HST
Nautical Twilight 5:45 AM HST 6:45 PM HST
Astronomical Twilight 5:19 AM HST 7:11 PM HST
Moon 7:30 PM HST (10/31) 8:12 AM HST (10/31)
Length of Visible Light 12h 06m
Length of Day
11h 21m
Waning Gibbous, 96% of the Moon is Illuminated
Oct 31
Waning Gibbous
Nov 6
Last Quarter
Nov 13
New
Nov 20
First Quarter
Nov 28
Full

Hourly Weather History & Observations

Time (HST) Temp. Heat Index Dew Point Humidity Pressure Visibility Wind Dir Wind Speed Gust Speed Precip Events Conditions
12:53 AM 68.0 °F - 64.9 °F 90% 30.10 in 10.0 mi Calm Calm - N/A   Clear
1:53 AM 69.1 °F - 64.9 °F 87% 30.08 in 10.0 mi Calm Calm - N/A   Clear
2:53 AM 68.0 °F - 64.9 °F 90% 30.07 in 10.0 mi Calm Calm - N/A   Clear
3:53 AM 66.9 °F - 64.9 °F 93% 30.06 in 10.0 mi Calm Calm - N/A   Scattered Clouds
4:53 AM 68.0 °F - 66.0 °F 93% 30.06 in 10.0 mi Calm Calm - 0.00 in   Scattered Clouds
5:53 AM 68.0 °F - 66.0 °F 93% 30.07 in 10.0 mi Calm Calm - N/A   Clear
6:53 AM 69.1 °F - 66.0 °F 90% 30.08 in 10.0 mi NE 3.5 mph - N/A   Partly Cloudy
7:53 AM 72.0 °F - 66.9 °F 84% 30.09 in 10.0 mi Variable 3.5 mph - N/A   Partly Cloudy
8:53 AM 75.9 °F - 68.0 °F 76% 30.10 in 10.0 mi Calm Calm - N/A   Overcast
9:53 AM 80.1 °F 82.7 °F 68.0 °F 67% 30.11 in 10.0 mi Calm Calm - N/A   Mostly Cloudy
10:19 AM 78.8 °F - 66.2 °F 65% 30.09 in 10.0 mi Variable 4.6 mph - N/A   Overcast
10:53 AM 77.0 °F - 68.0 °F 74% 30.10 in 10.0 mi SE 6.9 mph - N/A   Scattered Clouds
11:53 AM 82.9 °F 84.4 °F 64.0 °F 53% 30.07 in 10.0 mi East 9.2 mph - N/A   Partly Cloudy
12:53 PM 82.9 °F 84.4 °F 64.0 °F 53% 30.04 in 10.0 mi ENE 9.2 mph - N/A   Scattered Clouds
1:53 PM 82.9 °F 83.7 °F 62.1 °F 49% 30.01 in 10.0 mi East 8.1 mph - N/A   Clear
2:53 PM 82.9 °F 83.3 °F 61.0 °F 47% 30.01 in 10.0 mi East 9.2 mph 16.1 mph N/A   Clear
3:53 PM 82.0 °F 83.1 °F 63.0 °F 52% 30.00 in 10.0 mi ENE 8.1 mph - N/A   Partly Cloudy
4:53 PM 80.1 °F 81.2 °F 62.1 °F 54% 30.01 in 10.0 mi NE 8.1 mph - N/A   Clear
5:53 PM 77.0 °F - 64.0 °F 64% 30.02 in 10.0 mi Calm Calm - N/A   Clear
6:53 PM 73.9 °F - 64.0 °F 71% 30.04 in 10.0 mi ENE 3.5 mph - N/A   Clear
7:53 PM 73.0 °F - 64.0 °F 73% 30.06 in 10.0 mi ENE 4.6 mph - N/A   Clear
8:53 PM 71.1 °F - 63.0 °F 75% 30.07 in 10.0 mi Calm Calm - N/A   Clear
9:53 PM 70.0 °F - 63.0 °F 78% 30.08 in 10.0 mi Calm Calm - N/A   Clear
10:53 PM 69.1 °F - 62.1 °F 78% 30.08 in 10.0 mi Calm Calm - N/A   Clear
11:53 PM 68.0 °F - 62.1 °F 81% 30.07 in 10.0 mi Calm Calm - N/A   Clear